TimeEDT,TemperatureF,Dew PointF,Humidity,Sea Level PressureIn,VisibilityMPH,Wind Direction,Wind SpeedMPH,Gust SpeedMPH,PrecipitationIn,Events,Conditions,WindDirDegrees,DateUTC
12:15 AM,47.5,36.7,66,29.94,10.0,SW,3.5,-,N/A,,Clear,230,2013-03-16 04:15:00
12:35 AM,47.3,37.0,68,29.94,10.0,SW,3.5,-,N/A,,Clear,230,2013-03-16 04:35:00
12:55 AM,44.8,36.9,74,29.94,10.0,SW,3.5,-,N/A,,Scattered Clouds,230,2013-03-16 04:55:00
1:15 AM,42.8,37.4,81,29.93,10.0,Calm,Calm,-,N/A,,Clear,0,2013-03-16 05:15:00
1:35 AM,43.0,36.7,78,29.92,10.0,Calm,Calm,-,N/A,,Clear,0,2013-03-16 05:35:00
1:55 AM,43.2,37.8,81,29.92,10.0,Calm,Calm,-,N/A,,Clear,0,2013-03-16 05:55:00
2:15 AM,42.8,37.8,82,29.91,10.0,Calm,Calm,-,N/A,,Scattered Clouds,0,2013-03-16 06:15:00
2:35 AM,46.0,37.9,73,29.91,10.0,Calm,Calm,-,N/A,,Scattered Clouds,0,2013-03-16 06:35:00
2:55 AM,44.2,38.7,81,29.91,10.0,Calm,Calm,-,N/A,,Scattered Clouds,0,2013-03-16 06:55:00
3:15 AM,45.1,41.7,88,29.90,10.0,Calm,Calm,-,N/A,,Mostly Cloudy,0,2013-03-16 07:15:00
3:35 AM,45.7,40.6,83,29.89,10.0,Calm,Calm,-,N/A,,Overcast,0,2013-03-16 07:35:00
3:55 AM,46.4,40.6,80,29.89,10.0,Calm,Calm,-,N/A,,Scattered Clouds,0,2013-03-16 07:55:00
4:15 AM,46.4,40.8,81,29.89,10.0,Calm,Calm,-,N/A,,Clear,0,2013-03-16 08:15:00
4:35 AM,47.5,40.3,76,29.88,10.0,Calm,Calm,-,N/A,,Clear,0,2013-03-16 08:35:00
4:55 AM,44.8,41.0,87,29.88,10.0,Calm,Calm,-,N/A,,Clear,0,2013-03-16 08:55:00
5:15 AM,45.7,41.0,84,29.88,10.0,Calm,Calm,-,N/A,,Clear,0,2013-03-16 09:15:00
5:35 AM,45.9,41.9,86,29.88,10.0,SW,5.8,-,N/A,Thunderstorm,Clear,220,2013-03-16 09:35:00
5:55 AM,50.2,42.8,76,29.88,10.0,SW,5.8,-,N/A,,Clear,220,2013-03-16 09:55:00
6:15 AM,51.1,42.4,72,29.88,10.0,SSW,4.6,-,N/A,,Clear,210,2013-03-16 10:15:00
6:35 AM,50.4,43.0,76,29.88,10.0,SW,4.6,-,N/A,,Clear,220,2013-03-16 10:35:00
6:55 AM,52.2,43.7,73,29.89,10.0,SW,6.9,-,N/A,,Clear,220,2013-03-16 10:55:00
7:15 AM,53.6,44.6,72,29.90,10.0,SW,5.8,-,N/A,,Clear,220,2013-03-16 11:15:00
7:35 AM,55.4,44.1,66,29.90,10.0,SW,6.9,-,N/A,,Scattered Clouds,230,2013-03-16 11:35:00
7:55 AM,57.0,43.9,61,29.90,10.0,SW,8.1,-,N/A,,Mostly Cloudy,220,2013-03-16 11:55:00
8:15 AM,57.2,44.1,62,29.90,10.0,SW,8.1,-,N/A,,Scattered Clouds,220,2013-03-16 12:15:00
8:35 AM,57.4,43.9,61,29.90,10.0,SW,8.1,-,N/A,,Mostly Cloudy,220,2013-03-16 12:35:00
8:55 AM,57.7,44.4,61,29.90,10.0,SW,8.1,-,N/A,,Mostly Cloudy,220,2013-03-16 12:55:00
9:15 AM,58.6,44.4,59,29.89,10.0,SW,9.2,-,N/A,,Mostly Cloudy,220,2013-03-16 13:15:00
9:35 AM,59.2,44.2,58,29.89,10.0,SW,11.5,17.3,N/A,,Scattered Clouds,220,2013-03-16 13:35:00
9:55 AM,60.8,44.4,55,29.89,10.0,SW,10.4,-,N/A,,Clear,230,2013-03-16 13:55:00
10:15 AM,61.7,44.6,53,29.89,10.0,SW,11.5,-,N/A,,Clear,220,2013-03-16 14:15:00
10:35 AM,64.8,45.1,49,29.88,10.0,SW,11.5,17.3,N/A,,Clear,230,2013-03-16 14:35:00
10:55 AM,64.9,44.4,47,29.88,10.0,SW,11.5,18.4,N/A,,Clear,230,2013-03-16 14:55:00
11:15 AM,65.3,45.1,48,29.88,10.0,SW,9.2,-,N/A,,Clear,220,2013-03-16 15:15:00
11:35 AM,67.1,45.9,46,29.88,10.0,SSW,12.7,-,N/A,,Clear,210,2013-03-16 15:35:00
11:55 AM,68.9,45.3,43,29.87,10.0,SSW,15.0,21.9,N/A,,Clear,210,2013-03-16 15:55:00
12:15 PM,70.9,46.0,41,29.86,10.0,SW,12.7,19.6,N/A,,Clear,230,2013-03-16 16:15:00
12:35 PM,71.6,45.7,39,29.85,10.0,SW,13.8,19.6,N/A,,Clear,230,2013-03-16 16:35:00
12:55 PM,72.7,45.7,38,29.84,10.0,SW,15.0,20.7,N/A,,Clear,230,2013-03-16 16:55:00
1:15 PM,73.6,45.0,36,29.84,10.0,SW,15.0,26.5,N/A,,Clear,230,2013-03-16 17:15:00
1:35 PM,74.3,45.3,36,29.83,10.0,WSW,13.8,23.0,N/A,,Clear,240,2013-03-16 17:35:00
1:55 PM,74.8,45.5,35,29.82,10.0,WSW,12.7,26.5,N/A,,Clear,240,2013-03-16 17:55:00
2:15 PM,75.9,46.2,35,29.81,10.0,SW,21.9,27.6,N/A,,Clear,220,2013-03-16 18:15:00
2:35 PM,75.7,46.2,35,29.80,10.0,SW,16.1,23.0,N/A,,Clear,220,2013-03-16 18:35:00
2:55 PM,77.2,46.8,34,29.80,10.0,SW,18.4,21.9,N/A,,Clear,220,2013-03-16 18:55:00
3:15 PM,77.5,45.7,32,29.78,10.0,SW,19.6,24.2,N/A,,Clear,230,2013-03-16 19:15:00
3:35 PM,77.9,45.9,32,29.78,10.0,SW,13.8,26.5,N/A,,Clear,230,2013-03-16 19:35:00
3:55 PM,77.5,45.5,32,29.77,10.0,SW,17.3,27.6,N/A,,Clear,230,2013-03-16 19:55:00
4:15 PM,78.1,45.3,31,29.77,10.0,SW,19.6,25.3,N/A,,Clear,230,2013-03-16 20:15:00
4:35 PM,77.9,45.1,31,29.76,10.0,WSW,10.4,24.2,N/A,,Clear,250,2013-03-16 20:35:00
4:55 PM,77.0,45.5,33,29.76,10.0,WSW,13.8,20.7,N/A,,Clear,240,2013-03-16 20:55:00
5:15 PM,77.2,45.3,32,29.75,10.0,SW,15.0,23.0,N/A,,Clear,220,2013-03-16 21:15:00
5:35 PM,76.6,45.0,32,29.75,10.0,WSW,17.3,24.2,N/A,,Clear,240,2013-03-16 21:35:00
5:55 PM,76.6,44.8,32,29.74,10.0,SW,15.0,25.3,N/A,,Clear,230,2013-03-16 21:55:00
6:15 PM,76.1,44.8,33,29.75,10.0,SW,18.4,24.2,N/A,,Clear,230,2013-03-16 22:15:00
6:35 PM,75.6,44.2,33,29.75,10.0,WSW,12.7,20.7,N/A,,Clear,240,2013-03-16 22:35:00
6:55 PM,75.0,44.2,33,29.76,10.0,SW,11.5,21.9,N/A,,Clear,230,2013-03-16 22:55:00
7:15 PM,74.1,43.0,33,29.77,10.0,WSW,9.2,17.3,N/A,,Clear,240,2013-03-16 23:15:00
7:35 PM,72.7,42.3,33,29.78,10.0,SW,11.5,19.6,N/A,,Clear,230,2013-03-16 23:35:00
7:55 PM,72.9,41.5,32,29.80,10.0,WSW,9.2,18.4,N/A,,Clear,240,2013-03-16 23:55:00
8:15 PM,71.6,41.5,34,29.80,10.0,SW,11.5,-,N/A,,Clear,230,2013-03-17 00:15:00
8:35 PM,70.2,41.4,35,29.82,10.0,SW,6.9,-,N/A,,Clear,230,2013-03-17 00:35:00
8:55 PM,69.6,41.0,35,29.83,10.0,WSW,5.8,-,N/A,,Clear,240,2013-03-17 00:55:00
9:15 PM,68.9,41.0,36,29.84,10.0,WSW,5.8,-,N/A,,Clear,240,2013-03-17 01:15:00
9:35 PM,68.0,41.0,37,29.85,10.0,SW,6.9,-,N/A,,Clear,230,2013-03-17 01:35:00
9:55 PM,67.3,40.6,38,29.86,10.0,SW,5.8,-,N/A,,Clear,230,2013-03-17 01:55:00
10:15 PM,65.5,40.5,40,29.87,10.0,SW,4.6,-,N/A,,Clear,230,2013-03-17 02:15:00
10:35 PM,64.4,41.0,42,29.87,10.0,SW,4.6,-,N/A,,Clear,230,2013-03-17 02:35:00
10:55 PM,64.8,40.5,41,29.88,10.0,Calm,Calm,-,N/A,,Clear,0,2013-03-17 02:55:00
11:15 PM,56.3,43.0,61,29.89,10.0,North,3.5,-,N/A,,Clear,350,2013-03-17 03:15:00
11:35 PM,53.6,42.6,66,29.90,10.0,Calm,Calm,-,N/A,,Clear,0,2013-03-17 03:35:00
11:55 PM,53.8,43.3,68,29.90,10.0,Calm,Calm,-,N/A,,Clear,0,2013-03-17 03:55:00